Home   Weather   Orléans   Past weeks

Flag for France Past Weather in Orléans, Centre-Val de Loire, France — Yesterday and Last 2 Weeks

Now
34 °F

Fog.


Feels Like: 28 °F
Forecast: 32 / 49 °F
Wind: 7 mph from East

Location: Orleans Airport

Current Time: Dec 4, 2016 at 1:34:21 pm

Latest Report: Dec 4, 2016 at 1:00 pm


Visibility: 1 mi

Pressure: 30.12 "Hg

Humidity: 100%

Dew Point: 34 °F

Location of OrléansLocation

Past Weather in Orléans — Graph

°F

Orléans Temperature Yesterday

Maximum temperature yesterday: 45 °F (at 12:30 pm)
Minimum temperature yesterday: 32 °F (at 9:00 pm)
Average temperature yesterday: 39 °F

High & Low Weather Summary for the Past Weeks

 TemperatureHumidityPressure
High61 °F (Nov 21, 12:00 pm)100% (Nov 23, 1:00 am)30.57 "Hg (Nov 23, 1:00 am)
Low23 °F (Nov 30, 8:00 am)53% (Nov 28, 3:00 pm)29.30 "Hg (Nov 20, 4:30 am)
Average43 °F85%30.00 "Hg
* Reported Nov 19 12:00 pm — Dec 4 12:30 pm, Orléans, Weather by CustomWeather, © 2016

Note: Actual official high and low records may vary slightly from our data, if they occured in-between our weather recording intervals... More about our weather records

Advertising

Orléans Weather History for the Previous 24 Hours

Scroll right to see more
 ConditionsComfort  
Time TempWeatherWind HumidityBarometerVisibility
12:30 pm
Sun, Dec 4
34 °FLow clouds.6 mph100%30.12 "Hg1 mi
12:00 pm32 °FFog.7 mph100%30.12 "Hg1 mi
11:30 am32 °FFog.8 mph100%30.12 "Hg1 mi
11:00 am32 °FFog.8 mph100%30.12 "Hg1 mi
10:30 am32 °FIce fog.6 mph100%30.12 "Hg1 mi
10:00 am32 °FIce fog.8 mph100%30.12 "Hg1 mi
9:30 am32 °FIce fog.7 mph100%30.12 "Hg1 mi
9:00 am32 °FIce fog.9 mph100%30.12 "Hg1 mi
8:30 am32 °FIce fog.8 mph100%30.12 "Hg1 mi
8:00 am32 °FIce fog.10 mph93%30.09 "Hg1 mi
7:30 am32 °FIce fog.9 mph93%30.09 "Hg1 mi
7:00 am30 °FIce fog.8 mph100%30.09 "Hg2 mi
6:30 am30 °FLow clouds.8 mph93%30.09 "Hg4 mi
6:00 am30 °FLow clouds.7 mph93%30.09 "HgN/A
5:30 am28 °FLow clouds.5 mph93%30.09 "HgN/A
5:00 am28 °FPassing clouds.7 mph93%30.09 "HgN/A
4:30 am28 °FClear.7 mph93%30.09 "Hg6 mi
3:30 am28 °FClear.8 mph93%30.09 "Hg4 mi
3:00 am30 °FClear.7 mph93%30.09 "Hg4 mi
2:30 am30 °FClear.9 mph93%30.09 "Hg4 mi
2:00 am30 °FClear.9 mph93%30.09 "Hg4 mi
1:30 am32 °FClear.8 mph93%30.09 "Hg4 mi
1:00 am32 °FClear.9 mph93%30.09 "Hg4 mi
12:30 am32 °FClear.9 mph93%30.09 "Hg4 mi
12:00 am32 °FClear.9 mph93%30.09 "Hg4 mi
11:30 pm
Sat, Dec 3
32 °FClear.9 mph93%30.09 "Hg4 mi
11:00 pm32 °FClear.12 mph93%30.09 "Hg4 mi
10:30 pm32 °FClear.9 mph93%30.09 "Hg5 mi
10:00 pm32 °FClear.13 mph93%30.09 "Hg6 mi
9:30 pm32 °FClear.10 mph93%30.09 "Hg6 mi
9:00 pm32 °FClear.9 mph93%30.09 "Hg5 mi
8:30 pm34 °FClear.8 mph87%30.09 "Hg6 mi
8:00 pm36 °FPassing clouds.9 mph87%30.09 "HgN/A
7:30 pm37 °FPassing clouds.10 mph81%30.09 "HgN/A
7:00 pm37 °FPassing clouds.12 mph81%30.09 "HgN/A
6:30 pm39 °FOvercast.14 mph81%30.09 "HgN/A
6:00 pm39 °FOvercast.16 mph81%30.09 "HgN/A
5:30 pm39 °FPassing clouds.14 mph81%30.09 "HgN/A
5:00 pm39 °FSunny.15 mph81%30.09 "Hg10 mi
4:30 pm41 °FSunny.15 mph76%30.07 "Hg10 mi
4:00 pm41 °FSunny.15 mph76%30.07 "Hg10 mi
3:30 pm43 °FSunny.16 mph76%30.07 "Hg10 mi
3:00 pm43 °FSunny.18 mph76%30.07 "Hg10 mi
2:30 pm43 °FSunny.22 mph76%30.09 "Hg10 mi
2:00 pm45 °FSunny.17 mph71%30.09 "Hg10 mi
1:30 pm45 °FClear.16 mph66%30.09 "Hg6 mi
1:00 pm43 °FClear.18 mph66%30.09 "Hg5 mi
Weather by CustomWeather, © 2016

See weather overviewHow to use our weather pages